Theta_e
307 307 307 307 307 307 307 307 307 306 307 308 308 309 309 308 308 308 308 308 309 309 309 310 310 310 310 311 312 312 312 313 314 314 314 312 312 315 317 317 316 316 316 316 317 317 317 317 317 316 315 315 317 317 317 317 318 320 320 318 318 317 316 315 314 314 314 312 311 311 309 306 304 303 302 301 301 301 300 300 300 301 300 300 299 299 299 299
307 307 307 307 307 307 308 308 308 307 307 308 308 309 309 308 308 308 308 308 308 308 308 309 309 310 310 311 312 312 312 312 314 313 312 311 312 314 316 316 316 316 316 316 316 317 317 316 316 315 315 315 315 315 315 315 316 318 317 316 316 315 314 314 313 313 313 312 311 310 308 306 304 303 302 302 301 301 302 301 301 301 300 300 299 299 299 299
308 308 308 308 308 307 308 308 308 308 307 308 309 309 309 308 308 308 308 308 308 308 309 309 309 310 311 311 312 312 312 312 312 311 311 311 312 313 314 314 314 315 315 316 316 316 316 316 315 315 314 314 314 314 314 315 315 315 315 315 314 314 313 312 313 313 312 311 309 307 307 306 304 303 303 303 302 302 303 302 302 301 300 300 300 300 299 299
308 308 308 308 308 308 308 308 308 309 308 308 309 309 309 309 308 308 308 308 309 309 309 309 309 310 310 311 311 312 314 313 310 309 311 312 312 312 312 313 313 314 314 315 315 315 315 315 314 313 313 313 313 313 313 314 315 313 313 313 313 312 311 311 311 311 310 309 307 306 306 304 304 303 303 303 303 303 303 302 302 301 301 300 300 300 299 300
308 308 308 308 308 308 309 309 308 309 308 308 308 309 309 309 308 308 308 308 309 309 309 309 309 309 309 310 310 311 314 314 309 309 312 312 312 312 312 313 313 313 314 315 315 314 314 314 313 313 313 312 312 312 312 312 313 312 311 311 311 310 309 309 309 308 308 307 306 306 304 303 303 303 303 303 303 302 302 301 301 301 301 300 300 300 299 300
307 308 308 309 309 309 309 309 309 309 308 308 308 309 309 309 309 308 308 308 309 309 309 309 309 309 309 310 310 311 313 311 309 310 311 312 312 312 313 313 313 314 314 314 314 314 314 313 313 313 313 312 311 311 311 311 312 311 310 309 309 309 308 307 307 307 307 307 306 305 304 303 303 303 303 303 302 301 301 301 301 300 300 300 300 299 299 300
307 308 309 309 309 309 309 309 309 309 309 308 308 308 309 309 309 309 309 309 309 309 309 310 310 310 310 310 311 311 310 308 308 310 310 311 312 312 313 313 313 314 314 314 314 314 313 312 312 313 312 311 310 310 309 310 310 309 308 308 308 308 307 307 306 306 306 305 304 304 303 303 303 303 302 302 302 301 301 301 301 300 300 300 299 299 299 299
308 309 309 309 309 309 309 310 309 309 309 308 308 308 308 309 309 309 309 309 309 309 309 310 310 311 311 311 311 310 308 307 308 310 310 311 312 312 312 313 313 313 314 314 314 313 313 312 312 311 311 310 310 309 309 308 308 308 307 307 307 307 306 306 305 305 304 304 303 303 304 303 303 302 302 302 301 301 301 301 301 300 300 300 299 299 300 299
308 309 309 309 309 309 309 309 310 310 309 309 308 308 308 309 309 309 309 309 309 309 310 310 311 312 312 312 312 310 307 307 308 310 311 311 311 312 312 313 313 312 312 313 313 313 312 312 311 310 310 310 310 309 309 309 308 307 307 307 306 306 306 305 305 304 303 303 303 303 304 303 302 302 302 303 302 301 301 301 300 300 300 300 300 300 300 300
309 309 309 309 309 309 309 309 310 310 309 309 309 309 309 309 309 309 309 309 309 309 310 311 310 311 312 312 311 310 307 307 308 310 311 311 311 312 312 311 311 311 311 312 312 312 312 311 310 310 310 309 309 309 309 308 307 307 307 306 306 306 305 305 304 304 304 303 303 304 304 304 303 302 303 303 302 302 301 301 301 300 300 300 301 301 300 300
309 309 309 309 309 309 309 309 310 310 309 309 309 309 309 309 309 309 309 310 310 310 310 310 309 310 311 311 310 308 307 307 308 309 310 310 311 311 311 310 311 311 311 311 312 311 311 310 310 310 309 308 308 308 308 308 307 307 306 305 305 305 305 305 304 304 304 304 303 303 303 304 303 303 304 303 302 302 301 301 301 301 301 301 301 301 301 301
309 309 308 308 308 308 309 309 309 310 309 309 309 309 309 309 309 309 309 309 310 310 309 309 309 310 311 310 308 306 307 307 307 308 309 309 310 311 311 311 310 310 310 310 310 309 309 310 310 310 309 308 308 307 307 307 306 306 306 305 305 305 304 305 305 304 304 304 303 302 304 304 303 304 304 303 302 302 301 301 302 302 301 301 302 301 301 301
309 308 308 308 308 308 308 308 309 309 309 309 308 309 308 308 308 308 309 309 309 309 310 310 310 311 311 309 305 306 307 307 307 308 308 308 309 309 310 310 310 309 309 310 309 309 309 309 309 309 308 308 307 307 307 306 306 307 306 305 305 306 305 305 305 304 304 304 302 303 307 306 304 305 304 303 302 301 301 301 302 302 302 302 302 302 301 301
309 309 308 308 308 308 308 308 308 308 308 308 308 309 309 309 309 309 309 309 309 310 310 310 310 311 310 307 305 306 306 306 307 308 308 308 308 308 308 308 309 308 309 309 309 309 308 308 308 308 307 307 306 306 306 306 306 307 306 307 309 309 306 304 304 304 304 304 303 304 308 307 305 305 303 302 302 302 302 302 302 303 303 302 302 302 302 302
309 309 308 308 308 308 308 309 308 308 308 308 308 309 309 309 309 309 309 310 309 310 310 310 311 310 308 306 306 306 306 307 307 307 307 307 307 308 307 308 308 308 308 309 308 308 307 308 308 307 306 307 307 307 306 307 306 306 309 311 312 311 307 304 304 304 304 304 303 304 307 307 305 304 303 303 302 302 302 302 303 303 303 303 302 302 302 302
309 309 309 308 308 308 308 309 309 308 309 308 309 309 309 309 309 309 309 309 310 310 310 310 310 310 309 308 307 306 306 306 306 306 306 307 307 307 307 307 307 307 308 308 308 308 308 308 308 307 307 307 308 308 308 309 309 308 311 312 312 310 308 306 304 304 304 304 304 304 306 306 305 304 303 303 302 302 302 302 303 303 303 303 302 302 302 302
309 309 309 309 308 309 308 309 309 309 309 309 309 309 309 309 309 310 309 310 310 310 311 311 311 310 310 309 308 307 306 306 306 306 306 306 306 306 307 306 307 307 307 308 309 310 310 310 310 309 307 307 308 311 313 314 313 310 311 311 309 308 308 307 305 304 304 305 305 305 305 306 306 305 303 303 303 302 302 303 303 303 303 303 303 303 302 302
309 309 309 309 309 308 309 309 309 309 309 309 309 309 310 310 310 310 310 310 310 311 312 312 314 316 312 308 308 307 307 307 307 306 307 307 306 307 307 307 309 310 310 310 311 312 313 312 310 309 308 306 306 310 316 316 313 311 311 310 308 307 307 308 306 304 304 304 305 306 306 307 307 305 303 303 303 303 303 303 303 303 303 303 303 303 303 303
309 310 309 309 309 309 309 309 309 309 309 309 309 310 310 310 310 310 309 310 311 313 315 313 314 318 313 307 307 307 306 307 307 307 307 307 307 307 307 309 311 312 313 313 312 311 312 311 311 311 309 306 304 306 310 311 310 310 311 310 309 308 307 307 306 304 304 304 305 307 307 307 308 307 305 304 303 303 303 303 303 304 303 303 303 303 303 303
309 310 310 310 310 309 309 309 309 309 309 310 310 312 314 312 310 309 309 309 309 309 311 309 309 311 309 306 307 307 307 307 306 307 307 307 308 308 309 311 312 312 314 315 314 311 309 309 309 309 307 304 304 304 305 306 307 309 310 309 309 310 307 306 306 304 304 305 307 308 307 307 308 308 307 304 303 303 304 304 304 304 304 304 304 303 303 303
309 310 310 310 310 310 310 309 309 309 309 310 310 314 316 314 312 310 309 310 308 307 307 307 307 307 306 307 308 309 311 309 307 307 308 307 309 310 312 313 313 313 313 314 313 310 308 308 308 306 304 303 303 304 304 306 308 309 310 310 310 310 308 306 305 304 304 305 308 307 307 307 308 307 306 304 304 304 304 305 304 304 304 304 304 304 304 303
309 310 311 310 310 310 310 310 310 310 310 310 311 313 313 313 313 311 310 310 309 308 308 307 307 307 307 307 308 310 312 311 308 307 307 308 310 313 313 314 315 314 314 315 313 309 308 308 306 304 303 303 304 305 306 307 309 311 311 311 310 310 308 306 305 304 304 305 308 307 306 307 306 306 305 305 305 305 305 305 305 305 304 304 304 304 303 302
310 310 310 311 310 311 310 310 309 310 309 310 311 311 311 311 311 311 311 311 310 309 308 308 308 307 308 307 308 309 307 308 309 307 307 309 310 312 313 313 314 312 313 317 316 313 313 308 303 303 302 303 306 307 308 309 310 311 313 312 310 310 308 307 305 305 305 305 306 306 306 308 306 306 305 305 305 305 305 305 305 305 304 304 304 303 302 302
310 311 311 311 311 310 310 310 310 310 310 311 311 311 312 312 313 314 313 313 313 311 309 309 309 308 308 307 308 309 307 306 307 306 306 309 310 311 311 311 312 311 309 312 313 312 311 305 301 303 303 304 307 308 309 311 312 311 311 311 309 308 306 305 306 306 306 306 306 306 308 310 308 307 306 305 304 304 304 304 304 304 303 303 302 302 303 302
311 312 311 311 311 310 310 310 311 311 311 311 312 312 313 313 313 314 315 317 316 314 313 312 310 309 308 309 309 309 309 307 306 306 307 308 310 311 310 310 312 313 311 309 308 307 306 302 302 304 306 307 310 309 307 310 313 312 309 308 307 306 305 306 308 308 308 309 307 307 311 312 309 308 308 306 305 305 304 305 304 304 304 303 303 303 303 302
311 312 311 311 311 310 311 311 311 311 311 311 312 312 312 312 311 311 317 321 317 315 315 314 313 310 308 309 309 310 313 310 306 306 306 308 310 311 312 310 309 311 311 308 308 308 306 303 303 305 307 311 312 310 306 307 313 312 307 305 305 305 307 308 308 309 310 310 308 307 311 313 310 308 307 307 307 307 306 305 305 305 305 304 303 303 303 302
312 312 312 312 311 310 311 311 311 311 311 312 312 311 310 311 310 310 316 322 318 314 314 314 313 311 309 308 308 313 317 313 309 307 306 308 309 311 314 312 310 310 306 308 313 309 306 307 307 307 309 311 313 311 306 305 312 313 307 305 306 306 308 309 308 310 310 310 310 309 309 310 311 310 308 307 307 308 307 306 306 305 305 304 303 303 303 302
312 312 312 312 311 311 312 312 310 311 312 312 311 309 309 309 309 311 319 322 317 313 313 312 310 309 310 310 309 311 312 311 312 310 306 308 309 310 313 311 310 309 305 312 318 307 304 308 307 308 312 311 309 307 304 304 310 310 304 304 306 305 306 307 308 311 310 310 312 310 308 311 313 310 307 307 308 308 307 306 306 305 305 304 303 303 302 302
312 312 312 312 311 311 312 312 311 311 312 310 310 309 309 308 309 315 321 319 314 312 312 312 311 309 311 311 310 309 308 309 311 309 307 309 308 309 311 309 308 308 306 310 314 306 303 304 303 306 311 308 305 304 302 303 307 305 302 304 305 305 306 306 307 309 310 313 313 309 307 311 314 310 308 308 308 308 307 306 305 305 305 304 303 303 303 302
312 312 312 311 311 311 312 311 311 312 311 309 311 309 307 311 315 319 320 316 314 313 311 313 313 311 312 314 313 311 310 309 308 309 310 309 309 308 309 308 307 308 307 307 308 305 302 302 303 303 305 304 302 303 302 302 304 303 303 306 308 307 306 306 307 308 312 316 312 306 305 308 312 312 310 309 308 307 307 306 305 304 304 304 304 303 303 302
312 311 312 312 311 311 312 311 311 311 310 311 311 308 310 317 321 321 317 314 315 314 312 314 312 311 314 316 314 312 312 310 308 311 314 311 310 309 310 311 311 312 314 312 310 307 304 306 304 301 301 301 302 304 303 301 302 304 307 309 312 312 309 308 309 310 316 318 311 305 304 306 312 313 309 307 307 306 307 306 305 304 304 304 304 303 302 302
312 312 312 311 311 311 312 312 312 311 310 312 310 309 315 320 320 319 315 312 315 315 313 314 313 312 314 315 313 312 313 312 309 311 313 312 310 309 310 312 312 315 317 316 314 311 309 307 304 302 301 300 304 308 307 305 304 307 309 309 315 318 313 313 315 315 317 316 308 304 304 308 313 312 308 307 306 306 305 305 305 304 304 304 304 303 303 302
309 311 312 311 311 311 311 312 312 311 311 311 309 311 317 320 319 316 313 312 313 312 311 312 312 312 314 316 314 311 312 313 311 311 311 311 311 311 310 307 308 314 317 316 317 315 313 309 305 306 304 301 304 309 311 311 309 309 309 309 316 318 315 316 316 315 316 315 307 303 306 312 313 310 308 307 306 305 305 305 305 304 304 304 303 303 303 302
307 308 309 310 311 310 310 311 311 311 311 310 311 316 319 319 317 313 312 311 309 309 310 311 312 313 314 314 312 309 312 313 311 312 311 312 314 315 312 308 307 310 313 315 317 315 316 316 310 307 306 303 302 304 306 307 308 308 307 308 312 313 312 316 317 317 318 317 310 305 309 314 312 310 308 305 304 304 304 304 304 304 304 303 303 303 302 301
308 308 307 307 308 308 309 308 309 310 309 309 314 319 320 317 315 315 313 311 309 311 311 310 314 316 313 311 310 308 312 314 311 312 312 313 313 312 310 308 306 308 313 316 315 313 316 317 308 303 302 301 302 302 300 304 310 309 306 309 312 309 309 314 315 314 314 315 315 312 314 315 310 308 305 303 304 303 303 304 304 304 304 303 303 302 301 302
309 309 307 306 306 306 307 306 307 308 307 312 319 321 318 314 313 315 314 311 311 313 314 314 315 317 314 312 312 310 310 312 313 314 312 311 311 310 308 306 304 305 310 314 314 313 315 315 306 302 302 299 300 301 298 303 310 310 309 311 308 303 306 313 312 308 309 314 317 314 314 312 309 308 306 303 304 304 303 304 304 304 304 303 303 302 302 302
310 310 308 307 306 305 306 306 307 307 308 317 323 318 312 307 306 309 309 309 311 312 315 318 316 316 316 314 313 313 313 312 314 316 314 311 312 309 307 306 303 303 304 307 312 312 314 315 306 304 306 301 298 300 300 300 303 309 311 308 304 303 306 311 313 312 313 317 317 313 311 311 312 312 308 304 305 306 304 304 304 304 304 304 304 303 303 303
309 310 309 308 307 306 306 306 307 307 311 320 322 313 307 305 304 305 305 306 310 311 314 317 315 313 317 316 313 313 314 315 315 316 314 313 313 308 306 307 304 301 300 302 309 309 310 316 310 303 306 304 298 301 307 303 299 304 307 303 306 312 313 313 314 314 316 317 317 316 314 313 314 313 310 308 308 307 306 305 304 304 305 304 304 304 304 303
309 310 309 308 307 306 306 307 307 310 316 321 321 313 306 306 304 302 303 305 308 310 314 316 313 311 313 315 314 312 314 315 315 315 314 314 313 307 305 306 304 302 300 301 307 308 308 316 316 305 302 303 302 305 311 309 302 301 304 303 306 310 312 312 312 312 314 316 318 321 319 316 315 314 312 311 310 309 309 307 305 305 305 305 305 304 304 303
308 310 309 308 307 306 307 308 309 314 319 317 315 310 305 306 305 301 302 304 305 309 314 315 313 313 312 312 311 311 312 313 312 313 313 311 311 308 303 303 304 304 301 301 305 307 308 314 317 309 302 305 310 308 307 308 306 306 308 308 308 307 307 309 309 308 311 314 315 317 320 318 314 312 312 311 309 309 309 308 306 305 306 306 305 304 304 303
308 311 310 307 308 307 308 311 310 312 314 311 309 307 305 306 306 302 301 302 303 305 309 311 312 312 312 311 311 310 310 311 311 312 312 309 309 310 303 299 301 302 303 305 307 307 309 313 316 313 310 312 312 303 299 301 303 306 308 308 309 308 308 313 313 307 307 311 312 312 317 320 314 310 310 309 308 308 307 307 307 306 306 305 304 304 304 303
310 314 311 307 309 308 310 313 309 308 310 309 307 306 305 306 306 303 302 302 302 302 304 309 311 310 310 310 310 310 310 311 311 311 311 309 308 307 301 297 299 300 302 308 307 303 303 309 314 315 312 310 304 297 296 296 297 301 304 304 306 307 310 315 316 312 308 307 307 308 313 319 313 306 306 307 306 307 307 306 306 306 305 305 304 304 303 303
310 311 309 308 310 309 314 316 310 306 306 304 303 303 304 305 305 304 304 304 304 303 305 308 308 309 309 307 308 310 310 310 311 308 308 308 305 300 297 297 299 300 302 308 307 302 303 309 314 316 310 304 299 296 295 294 296 303 306 303 305 307 309 311 311 311 311 310 310 309 313 321 314 304 303 305 305 306 306 306 306 305 305 304 304 304 303 304
308 308 307 309 309 310 317 321 313 307 304 302 302 302 303 303 304 305 306 304 304 305 307 307 306 307 307 304 306 308 307 309 311 306 305 308 304 298 296 297 299 300 303 307 307 303 307 312 313 318 319 314 310 307 304 301 300 305 308 304 304 306 306 308 308 308 311 315 314 313 318 323 314 305 303 303 303 304 304 305 305 305 304 304 304 304 304 304
309 309 308 308 308 309 314 316 311 308 307 307 306 305 305 304 301 303 305 303 302 303 307 307 305 305 305 304 306 305 303 307 310 306 304 306 303 298 297 297 298 299 300 301 300 302 308 311 312 318 322 319 320 318 316 313 308 306 306 304 304 305 306 309 309 310 314 315 312 314 321 321 312 307 307 305 304 304 304 305 305 304 305 305 304 304 304 304
310 313 312 309 308 308 310 309 308 308 308 311 310 307 308 309 304 301 303 303 302 302 305 305 303 305 307 306 309 308 304 304 307 307 305 305 302 298 297 297 297 298 298 297 297 300 306 309 309 313 316 317 318 315 313 312 310 309 309 306 305 305 305 308 310 312 316 315 312 314 317 315 312 310 310 310 308 306 304 305 305 304 305 305 305 305 304 304
311 316 314 312 311 309 309 308 307 307 309 313 312 308 309 311 306 303 302 303 302 302 303 303 302 307 311 310 312 312 306 304 306 307 306 304 300 297 295 296 297 298 297 297 297 300 307 311 308 308 312 313 311 310 309 309 309 311 311 310 307 304 304 306 309 313 316 315 315 315 312 312 313 310 311 313 311 307 305 306 307 307 306 306 306 305 304 304
313 313 308 311 315 314 313 311 308 307 308 310 310 308 309 310 309 307 305 302 301 302 306 308 307 309 311 311 314 315 309 307 308 308 306 304 301 299 298 297 296 297 298 297 296 299 307 311 306 305 311 312 308 308 309 307 307 308 308 309 308 305 305 306 307 309 313 314 315 314 312 312 311 309 309 310 309 308 308 308 308 308 307 307 306 305 304 304
310 309 305 308 313 310 310 310 307 307 307 308 310 309 310 312 311 308 305 303 304 303 305 312 315 311 309 309 314 316 313 313 314 310 307 305 303 304 305 303 299 296 297 297 296 297 304 311 306 303 309 312 309 307 306 305 305 306 306 308 309 307 306 306 306 307 309 312 311 311 311 309 308 308 307 307 307 308 308 308 308 308 307 307 305 305 304 305
308 310 307 307 308 304 305 307 307 310 309 308 313 311 308 312 314 309 304 306 311 307 304 311 317 311 307 308 314 318 313 314 318 314 310 310 308 306 307 308 303 297 296 298 297 296 303 311 306 303 310 315 310 306 304 303 303 304 304 305 306 308 307 305 305 305 307 308 307 307 308 307 306 306 306 307 308 307 307 307 307 307 307 306 305 305 305 305
309 310 308 311 311 305 305 306 307 313 313 311 315 313 309 313 313 309 305 304 307 310 308 310 313 308 305 307 313 315 308 306 310 309 307 309 310 307 306 305 305 302 299 299 299 299 303 308 306 305 313 318 312 309 308 305 303 306 310 309 305 306 308 307 305 305 306 306 306 306 309 310 308 307 307 308 308 307 307 307 307 307 307 306 306 306 306 306
308 309 308 313 313 306 305 306 306 312 315 311 311 310 310 312 309 308 311 306 301 304 307 307 308 308 308 311 312 309 303 301 303 303 302 303 303 303 304 303 303 304 302 299 300 302 303 308 308 307 315 319 313 309 309 310 313 317 320 320 312 306 306 307 306 306 306 306 307 310 312 311 309 308 309 309 307 307 307 307 307 308 306 306 306 306 306 306
Wind_Speed
14 14 14 14 14 14 14 13 11 9 9 11 13 14 13 12 13 14 13 12 12 11 12 12 12 12 13 17 19 19 19 17 20 25 25 20 14 13 15 16 17 17 16 15 14 13 10 8 9 10 14 15 15 15 12 14 11 5 5 6 6 5 5 6 5 7 9 8 8 7 4 7 7 5 7 6 7 9 7 7 7 6 6 6 5 4 6 8
12 13 13 13 13 13 14 14 12 9 9 12 14 15 15 14 13 12 10 9 8 9 10 10 10 10 13 18 19 20 20 18 23 27 23 13 10 10 11 12 12 11 11 13 12 8 8 10 11 13 18 17 14 12 10 14 19 11 4 6 6 4 7 10 10 12 12 9 10 7 4 8 7 4 4 3 6 7 7 7 6 5 5 4 4 4 5 5
12 12 11 11 10 10 11 12 13 10 8 12 15 16 15 14 13 9 7 7 5 7 9 10 14 15 17 19 19 19 18 21 23 23 18 12 10 8 7 8 9 9 11 16 14 8 10 12 14 17 22 20 16 17 16 14 16 14 8 6 5 7 11 15 16 16 14 12 12 8 7 9 6 4 1 1 6 5 6 7 5 7 6 4 3 2 4 5
11 10 10 9 8 8 9 10 13 12 8 12 14 15 14 13 11 8 10 11 9 11 12 14 16 12 10 8 10 12 13 18 19 20 13 13 11 9 7 7 9 10 14 17 13 10 13 14 17 19 22 20 20 24 22 15 11 12 10 7 7 12 11 14 17 15 14 12 11 9 7 8 5 2 2 1 3 2 7 7 4 7 5 4 2 1 3 3
9 8 8 8 8 8 8 9 11 12 9 11 13 13 13 12 10 9 12 14 14 12 11 10 9 5 1 3 3 3 4 8 12 14 11 13 13 13 12 12 14 15 17 17 12 13 14 15 19 19 17 14 15 18 17 16 15 13 13 14 14 13 10 12 15 13 12 11 10 9 7 6 4 3 4 5 3 3 7 6 5 7 4 3 2 1 1 2
7 8 7 7 7 6 6 7 7 10 10 9 13 12 12 11 8 9 10 13 16 14 11 8 5 4 4 3 3 3 3 5 8 11 10 11 13 15 15 16 18 18 16 15 11 12 12 15 20 18 16 15 14 13 14 15 13 10 12 17 17 15 14 12 11 10 10 10 9 8 6 5 2 3 3 4 4 4 4 4 4 4 3 3 3 1 1 1
7 7 7 7 7 5 5 6 5 6 10 9 10 11 10 9 7 8 8 10 12 13 12 12 12 10 11 13 11 15 22 15 11 12 9 9 11 12 16 17 17 16 13 13 11 12 15 18 22 20 16 14 15 16 21 24 20 14 10 15 17 17 16 12 10 10 10 10 9 6 5 3 2 2 1 1 3 3 2 2 4 4 4 3 2 2 2 3
7 7 7 7 6 5 4 4 5 5 7 10 8 8 9 7 6 6 6 7 8 10 10 15 20 20 21 22 24 30 29 19 16 14 10 9 10 11 15 15 16 16 14 14 14 15 16 18 18 18 15 12 14 18 20 22 20 14 11 13 16 15 14 11 10 11 9 9 6 3 5 3 1 1 1 3 5 4 3 3 4 4 3 3 2 3 3 4
7 7 8 8 6 6 5 6 8 8 8 9 10 8 8 8 6 5 5 4 6 8 11 17 16 14 17 17 22 26 21 17 17 15 12 10 10 12 15 15 15 15 14 14 13 11 12 15 16 17 18 17 17 15 12 10 9 11 14 15 16 14 12 10 9 9 7 6 3 2 3 3 1 2 3 6 7 5 4 3 3 3 3 4 4 4 4 3
7 8 8 9 8 8 9 10 11 10 11 12 14 13 10 8 7 5 4 4 7 9 13 12 4 5 9 14 22 16 12 18 18 13 14 11 9 11 12 13 11 9 8 9 11 10 14 22 25 25 22 20 18 16 14 11 10 16 19 17 16 14 11 9 9 6 5 5 4 4 1 3 2 3 2 7 8 5 3 3 3 3 3 4 5 4 4 4
8 9 10 9 10 11 12 13 12 11 11 11 12 12 10 7 6 5 4 6 6 7 6 4 4 2 8 18 28 14 11 23 19 15 15 10 9 10 11 9 5 4 2 6 15 20 23 25 24 19 16 20 22 22 21 18 19 22 20 17 13 13 10 8 7 4 1 3 4 5 4 2 3 3 3 10 8 5 3 4 5 5 4 4 5 5 5 6
11 12 11 11 12 13 14 14 12 10 10 11 13 14 13 11 9 8 9 11 11 12 13 8 9 13 17 26 32 16 15 22 19 19 20 15 10 8 7 3 1 5 8 17 24 22 18 15 13 11 13 20 17 13 15 19 23 21 15 11 8 9 8 5 5 3 2 1 3 3 4 2 5 3 6 10 7 4 4 4 5 6 6 5 5 5 6 6
13 13 13 13 14 16 16 15 14 14 14 16 18 19 19 18 18 18 18 18 16 16 13 11 12 13 18 25 25 16 17 18 15 16 21 20 15 12 11 9 11 17 20 24 22 14 13 15 21 22 20 19 12 11 16 16 16 12 8 7 6 5 4 3 3 2 2 1 3 2 2 2 6 7 9 9 6 5 5 5 6 6 6 5 5 6 6 6
12 12 13 13 15 17 17 16 17 17 18 20 19 16 14 14 17 17 16 13 11 10 7 8 8 8 17 21 17 18 19 17 14 12 17 19 16 16 16 14 14 16 14 15 16 17 20 22 28 27 22 23 21 19 16 9 6 4 5 4 2 2 1 2 3 5 2 1 3 2 2 2 5 10 11 8 6 6 6 5 6 6 5 5 5 6 6 6
11 11 12 13 15 16 16 16 17 18 18 17 13 13 13 14 13 12 11 11 13 13 13 15 16 20 26 19 14 18 18 20 20 20 21 21 19 18 19 18 16 16 16 18 22 25 25 24 28 26 22 25 24 15 7 4 3 2 3 1 2 3 1 1 3 5 2 2 2 0 2 2 5 11 11 8 7 7 6 5 5 5 4 5 5 6 6 5
10 10 11 13 14 15 15 16 16 15 15 13 14 16 18 19 17 15 13 13 14 13 16 19 19 25 24 13 13 18 19 20 20 21 23 24 24 23 23 24 24 25 25 25 25 24 23 24 25 21 16 13 9 5 3 3 2 1 3 1 3 3 3 2 1 2 2 4 2 2 2 3 2 11 12 9 9 7 6 6 5 5 5 5 5 5 5 5
9 9 10 12 13 13 13 14 14 14 16 17 17 17 17 18 17 17 17 17 18 15 20 23 19 21 18 9 10 14 15 15 13 15 19 20 20 19 19 20 22 23 21 20 18 16 16 16 12 10 10 5 4 1 3 3 2 1 3 2 1 1 2 2 1 1 4 3 3 3 3 5 4 12 15 10 10 8 6 6 5 5 5 4 5 5 4 4
8 9 11 11 11 11 11 12 13 15 17 17 15 13 13 13 11 13 14 14 15 13 12 13 9 10 12 8 9 11 9 8 8 10 12 13 13 13 14 14 13 13 12 11 10 11 10 10 8 5 7 8 6 3 3 1 0 2 3 2 1 1 2 2 2 2 4 2 3 4 5 6 5 8 15 12 11 10 8 6 5 4 3 3 4 4 3 3
8 9 10 10 9 10 10 12 13 14 15 14 13 12 11 12 11 11 12 10 11 10 5 9 11 8 8 9 12 12 8 6 6 8 8 9 9 9 10 10 8 6 7 6 7 11 9 8 9 5 5 6 5 6 4 2 2 3 3 2 2 1 3 3 2 2 4 2 4 5 4 5 6 4 12 15 12 10 8 6 5 3 3 3 2 2 2 2
7 9 8 8 8 10 11 12 13 12 13 14 13 9 7 11 10 12 21 23 23 20 12 14 18 18 13 11 11 10 10 9 7 6 7 7 8 8 9 10 10 10 7 3 5 10 10 8 6 4 3 5 4 5 3 2 3 4 3 1 3 2 2 2 2 2 2 3 3 2 3 6 7 5 7 16 12 9 8 7 6 5 4 3 1 1 1 2
7 8 7 8 10 12 12 13 13 12 13 13 6 4 2 4 5 11 22 26 24 23 21 19 19 19 15 11 9 8 8 9 7 4 4 6 7 6 7 7 7 9 6 4 7 9 11 8 3 3 3 6 5 5 5 4 4 3 4 1 2 3 1 2 3 1 1 2 3 2 6 7 4 5 8 16 11 7 8 8 7 7 5 3 1 2 1 1
7 8 8 10 13 12 12 13 12 12 13 7 4 5 7 11 14 20 22 19 19 21 20 19 18 17 16 13 10 8 8 7 9 8 5 4 7 6 7 7 5 4 4 3 6 7 8 5 2 3 4 7 6 6 5 4 3 4 5 2 1 2 1 2 2 2 1 0 4 6 6 6 2 5 8 11 6 4 5 6 6 6 5 3 2 2 0 2
7 8 10 13 13 12 12 13 12 12 9 3 7 14 19 22 22 23 21 16 15 17 17 17 17 17 14 13 10 9 12 10 9 12 9 7 10 11 11 9 6 5 5 4 3 5 4 3 2 4 6 6 3 2 4 3 3 5 5 3 1 3 2 0 1 2 1 2 3 4 5 4 1 2 2 4 4 4 4 5 6 7 6 4 2 1 1 1
7 8 12 14 13 13 13 12 10 8 5 6 15 22 23 23 20 18 17 12 8 10 14 14 15 15 13 11 10 11 15 14 11 12 12 9 9 11 10 8 8 7 7 8 10 9 4 2 4 5 5 5 3 4 7 3 2 4 5 4 1 3 2 2 3 4 2 2 3 3 3 3 2 2 1 3 4 5 5 4 6 8 7 6 4 2 2 0
9 8 12 15 15 15 13 9 5 6 9 15 21 21 18 15 12 9 8 7 5 6 9 8 10 12 9 8 8 9 12 14 16 13 10 10 8 7 6 6 6 4 4 9 12 9 4 2 4 4 4 4 2 3 6 3 1 2 3 3 3 3 4 5 6 5 2 1 3 1 2 2 1 2 2 4 4 5 5 4 5 7 7 6 4 3 3 3
11 10 12 15 15 15 11 4 5 12 19 22 18 12 8 6 5 4 2 3 3 4 5 5 6 6 7 8 4 3 5 7 14 15 10 9 8 5 4 5 5 4 3 6 7 4 3 0 2 4 4 3 2 4 3 3 1 1 2 4 4 3 4 5 6 4 1 1 3 2 3 2 3 1 3 2 2 4 6 5 4 6 7 5 4 4 3 2
11 11 13 15 15 15 8 3 10 20 23 19 10 5 4 2 3 4 2 3 2 3 3 4 4 4 7 9 5 1 2 1 7 15 12 9 7 7 5 3 4 5 2 3 4 2 2 2 3 4 4 2 2 2 3 3 2 0 3 4 4 4 4 5 5 3 1 1 2 3 3 1 2 3 3 2 1 4 6 4 4 6 7 5 4 4 3 2
11 12 13 14 14 13 7 6 16 22 19 13 4 6 5 4 4 3 2 2 1 2 2 3 4 5 7 11 12 7 5 1 3 9 13 10 7 8 8 4 4 5 2 2 4 1 3 4 5 4 3 2 2 2 3 3 2 1 2 3 3 3 3 4 4 4 1 2 2 5 4 1 2 4 3 2 1 3 5 5 6 5 6 6 4 2 2 3
10 12 13 13 13 12 7 8 18 19 13 7 5 6 6 6 3 2 2 1 1 1 2 2 2 4 5 8 13 11 8 6 4 6 12 12 8 8 10 8 10 10 9 8 5 2 3 4 3 2 2 3 3 2 3 3 1 0 2 3 2 3 3 2 3 4 2 3 2 4 4 1 2 3 2 2 1 2 3 5 7 6 6 6 4 3 2 3
10 11 13 13 11 11 8 11 17 15 9 4 6 8 8 6 2 2 1 1 1 1 2 2 1 4 5 2 7 10 8 7 5 6 10 12 12 14 13 10 11 9 9 12 8 3 3 3 4 3 2 2 3 2 2 2 1 1 2 2 1 2 2 2 2 2 2 1 2 2 3 2 0 3 3 2 2 4 3 4 6 8 8 7 5 4 3 3
10 10 12 12 9 9 10 15 18 13 8 2 8 10 7 4 2 2 1 1 1 1 2 3 1 4 4 1 3 6 5 6 7 6 6 7 8 10 8 5 5 5 4 6 5 1 2 2 3 3 3 3 2 1 1 1 1 0 2 1 1 1 1 0 1 2 2 2 3 1 2 3 1 5 3 3 4 5 4 3 5 7 9 8 6 5 5 4
11 11 11 10 8 6 10 17 20 16 9 2 8 9 4 2 2 1 1 1 1 1 1 1 1 2 3 3 3 4 2 4 8 6 3 3 4 5 5 1 1 3 2 2 2 1 0 1 1 1 4 5 3 2 2 2 1 1 2 2 2 1 1 2 2 1 1 3 3 3 1 1 3 5 4 6 6 6 5 4 4 4 6 6 6 6 6 6
12 12 12 11 8 6 8 13 18 18 11 6 7 5 3 1 0 1 1 1 1 0 1 1 1 2 1 2 3 3 1 1 4 4 2 1 3 3 3 3 1 2 2 2 2 1 1 1 1 2 2 6 5 2 1 2 3 2 2 2 2 1 2 2 2 2 1 2 1 2 0 1 2 3 4 7 8 9 7 5 4 4 4 5 7 7 8 8
9 11 13 12 11 10 9 10 14 15 12 7 3 2 4 1 1 0 1 1 1 1 1 1 1 1 3 3 0 2 2 1 3 2 2 2 3 2 1 5 6 1 1 2 2 0 1 1 2 2 2 5 5 3 2 2 3 3 1 2 1 2 2 1 1 1 3 4 2 1 0 2 2 2 3 9 11 10 8 6 4 3 4 6 8 10 10 9
6 8 10 11 12 12 11 10 11 11 9 5 2 2 2 1 1 2 2 1 1 2 1 1 2 1 4 2 0 1 1 1 2 2 4 3 2 2 1 3 6 4 0 1 0 0 2 1 1 1 1 2 3 1 1 1 2 3 0 3 1 0 2 1 0 1 1 2 2 1 2 3 3 1 4 8 9 8 7 7 5 3 4 5 7 9 10 8
5 6 7 8 10 10 10 10 10 9 9 6 3 1 0 1 1 1 1 1 2 3 3 1 1 1 2 1 2 2 1 0 1 1 3 3 1 2 1 1 4 5 2 2 1 0 1 1 2 1 2 3 3 1 1 1 1 2 2 1 1 2 3 2 1 1 1 1 3 1 2 2 1 2 1 4 5 7 8 8 6 4 4 5 5 6 7 7
6 6 7 7 8 8 9 10 10 11 10 5 3 1 1 0 0 1 3 2 1 2 3 2 1 1 2 1 1 1 1 1 1 1 1 1 1 2 2 1 2 3 2 1 1 1 2 0 1 0 1 0 1 1 1 1 1 1 1 2 1 2 2 1 1 2 2 1 3 1 1 3 1 2 2 2 4 5 7 9 8 6 7 8 7 6 6 8
7 8 8 7 7 8 10 10 11 12 8 4 4 1 1 1 1 2 3 3 1 1 1 1 0 0 1 2 2 0 2 1 1 2 1 0 1 2 1 1 2 3 2 1 1 1 2 1 2 1 1 2 1 1 1 2 2 1 1 2 0 2 0 0 1 1 1 3 4 2 2 2 4 4 3 4 7 7 7 9 9 8 9 8 7 6 7 9
5 6 7 7 8 10 11 11 12 10 4 4 3 1 1 1 2 2 2 2 2 2 1 1 1 1 1 1 2 0 2 1 1 1 1 1 1 2 2 1 1 2 3 2 0 1 1 1 1 3 1 2 1 1 1 1 2 2 2 2 1 3 1 1 1 1 1 1 4 4 4 3 4 5 6 7 8 8 7 7 9 10 7 5 5 6 7 10
3 4 5 6 10 11 12 12 9 5 3 3 3 1 1 2 1 2 3 2 1 2 1 0 1 2 1 0 1 0 1 1 1 1 1 1 1 2 3 3 2 2 3 3 1 0 1 1 1 2 2 2 1 1 1 1 1 0 1 1 0 1 1 1 0 1 1 1 2 4 5 5 4 3 7 8 6 8 8 7 10 10 6 4 6 8 10 11
4 4 4 7 11 12 12 10 6 6 4 2 3 2 1 3 3 3 5 4 3 3 2 2 2 2 2 1 0 1 1 1 2 1 1 1 1 1 2 4 5 4 3 3 1 2 1 1 1 1 0 1 1 0 2 2 0 0 1 2 2 1 2 1 1 2 0 1 2 1 4 7 6 2 3 7 8 9 9 8 9 8 7 7 8 9 12 13
4 3 4 9 12 12 10 6 6 5 3 2 3 3 3 4 4 2 3 4 4 3 3 3 3 2 2 1 1 1 2 2 2 2 2 2 2 1 2 3 5 4 3 1 1 2 2 1 0 1 2 1 1 1 2 2 2 1 1 0 1 2 3 3 2 2 0 1 0 1 2 7 6 3 2 6 10 10 10 11 10 10 10 10 10 11 13 14
5 6 6 11 13 10 7 5 4 4 3 3 4 5 4 3 3 2 1 2 2 2 3 2 2 2 2 1 2 2 2 2 2 2 2 2 1 0 1 3 4 4 3 1 1 4 3 0 0 1 1 1 1 1 1 2 2 1 3 2 1 1 2 4 3 2 1 2 2 3 2 7 6 1 1 3 7 9 11 11 12 12 12 11 11 12 14 13
9 9 7 11 12 7 3 3 3 2 2 3 3 4 4 3 3 3 2 1 1 1 2 2 1 2 2 1 3 2 0 1 2 1 1 2 1 1 1 1 2 3 2 2 1 4 3 1 1 2 2 2 2 1 2 2 1 2 2 1 2 2 5 3 1 3 0 5 6 4 4 7 4 1 1 3 5 7 11 13 13 13 13 13 12 12 13 13
10 8 6 8 10 7 1 3 8 6 3 4 4 2 3 3 3 3 3 3 2 2 2 2 2 4 3 2 4 2 0 1 1 1 1 2 2 1 0 1 1 2 2 4 2 1 2 2 1 1 1 2 1 1 2 2 2 2 0 1 1 3 5 2 2 3 2 4 6 5 5 6 4 2 3 6 6 7 11 13 14 15 15 14 13 12 13 14
5 3 3 4 3 2 3 7 12 10 6 6 4 2 3 3 1 3 4 3 3 4 4 3 3 3 2 2 3 2 1 2 2 2 2 2 2 1 0 1 2 2 3 3 2 1 1 1 2 4 3 4 3 4 4 1 2 2 1 2 3 4 5 2 2 3 4 2 3 7 7 9 11 6 5 7 7 8 12 14 15 17 17 16 14 13 13 14
0 1 3 3 3 5 7 8 11 10 7 7 4 2 4 4 2 2 2 1 3 4 3 2 2 2 2 3 3 2 1 2 3 2 1 2 2 1 1 2 2 1 2 2 2 1 1 0 1 2 5 7 6 6 6 3 4 5 4 5 6 6 5 5 4 5 3 3 4 7 4 7 13 10 6 8 7 7 12 15 15 16 16 16 15 14 14 15
1 2 3 4 3 3 4 5 10 10 7 5 3 3 5 4 3 3 1 1 2 3 2 2 1 4 3 2 2 3 2 1 2 1 0 1 2 2 1 1 1 0 1 2 2 2 2 1 1 0 5 7 6 6 6 6 5 5 5 6 8 8 9 10 10 8 3 3 8 6 3 7 14 13 10 12 12 13 17 18 17 15 15 15 16 17 17 16
3 4 4 5 4 4 5 8 12 12 9 5 3 2 5 6 5 2 2 3 1 3 2 1 3 5 3 2 3 4 3 1 1 2 2 3 3 2 1 0 0 1 1 2 2 2 2 1 1 0 5 8 4 2 2 4 4 4 6 8 8 10 12 13 11 8 7 10 13 11 12 15 17 16 17 24 25 21 20 20 17 17 18 18 19 20 19 18
4 4 6 8 8 8 9 11 12 9 5 3 2 2 5 7 5 3 3 3 2 3 4 2 4 6 4 3 4 3 2 2 2 3 5 5 2 3 3 2 2 2 1 1 1 2 1 1 1 1 3 5 2 2 1 3 3 4 7 9 8 9 10 11 10 7 7 11 13 11 12 15 18 19 20 25 25 17 15 17 17 18 18 17 18 19 19 19
4 4 6 8 6 5 6 8 6 4 2 0 2 4 5 5 7 6 3 1 1 3 4 5 9 7 4 3 4 3 2 3 5 5 6 6 4 4 3 3 5 5 1 1 0 1 1 0 0 2 2 4 3 2 3 3 3 6 10 10 11 10 7 8 8 7 8 8 7 6 7 9 12 13 11 14 14 12 14 17 17 16 15 15 17 18 19 19
5 6 7 7 4 2 3 3 1 3 3 1 2 5 4 6 11 10 4 1 2 4 5 8 11 7 3 3 4 4 5 6 9 9 8 7 8 9 7 6 7 7 5 4 2 0 1 0 1 2 1 4 3 2 3 4 4 3 6 7 11 10 7 6 6 8 10 7 4 5 8 7 6 6 5 8 11 12 15 17 17 17 16 17 19 19 20 21
Wind_Direction
79 80 81 84 87 86 84 83 91 107 127 137 135 131 128 126 121 116 112 112 115 115 119 120 119 107 97 100 96 89 85 103 119 103 82 55 46 73 82 91 95 90 88 84 79 90 108 101 86 91 101 96 80 72 64 45 45 94 92 66 79 62 50 49 58 91 110 117 124 141 119 100 109 95 102 97 91 101 97 88 89 87 86 90 84 69 41 40
78 77 77 81 85 82 75 71 76 94 128 139 139 136 132 133 126 117 105 96 106 117 126 129 128 121 108 105 103 99 87 98 107 84 65 55 65 81 83 93 96 88 86 78 67 85 111 98 96 99 95 82 55 53 61 43 41 51 76 75 74 62 58 60 78 96 103 118 121 118 79 93 102 102 130 129 122 134 121 115 127 108 93 90 62 60 43 43
80 76 74 77 80 76 69 65 69 84 131 142 140 139 136 138 134 116 75 49 71 109 119 125 128 124 110 100 97 93 78 89 86 56 52 70 74 80 86 91 91 93 93 79 65 83 111 106 113 104 87 69 50 59 58 37 42 53 74 87 75 81 71 63 74 88 99 112 111 99 78 87 85 87 154 150 149 166 116 119 151 128 120 121 87 64 40 40
76 71 69 70 71 69 67 69 69 72 118 150 144 142 140 141 137 105 64 54 78 116 118 121 129 125 103 78 81 83 66 73 48 21 49 73 72 81 83 95 96 97 95 82 70 95 107 103 111 100 84 73 62 63 52 39 60 63 68 93 91 89 78 65 74 84 95 103 104 108 98 90 86 81 340 11 152 155 85 91 114 115 121 123 111 68 42 30
65 64 65 66 67 66 68 78 76 66 92 153 153 147 147 144 131 93 74 67 79 114 130 138 154 172 219 344 51 62 34 60 14 12 64 70 78 87 86 102 99 92 88 86 89 100 101 99 101 87 77 77 63 62 51 50 79 76 67 85 88 88 83 70 74 81 93 99 102 104 96 98 110 87 12 11 58 58 84 102 114 115 128 144 170 209 40 7
62 62 61 65 67 67 66 74 86 68 70 134 161 158 150 151 131 90 82 75 72 88 102 118 155 228 254 318 304 246 95 75 3 25 63 66 81 88 92 101 96 91 85 87 99 99 101 102 97 84 77 75 65 69 60 55 81 92 72 76 81 86 91 83 71 73 90 91 81 82 94 110 117 100 62 24 75 109 122 141 159 157 174 191 210 252 339 331
64 61 61 69 70 72 68 62 85 84 67 95 151 167 161 160 133 97 91 81 71 76 86 97 100 101 99 89 97 95 81 65 29 42 62 64 76 91 99 102 95 88 85 93 99 98 99 96 92 88 87 80 75 79 74 68 76 92 86 78 81 84 88 87 73 71 81 79 74 87 103 87 36 78 95 87 132 175 218 208 211 207 216 231 237 264 283 287
63 64 68 74 77 73 64 61 84 105 78 73 105 154 174 168 138 121 99 83 77 77 96 110 107 103 95 90 88 75 58 38 37 53 64 67 75 99 108 107 99 93 100 105 97 95 92 87 88 86 84 88 98 98 88 75 65 74 95 93 90 88 90 90 82 80 79 81 83 97 91 70 33 13 259 197 179 215 238 228 235 228 232 247 255 262 270 287
68 72 78 79 75 66 66 91 102 104 92 75 77 108 154 159 148 137 103 76 70 87 118 117 108 100 87 83 82 66 38 30 44 55 66 77 86 103 113 108 98 98 104 103 93 92 91 89 93 97 99 96 98 102 95 79 63 84 101 103 99 95 96 92 86 83 83 84 46 12 108 134 235 282 243 199 190 210 226 228 236 230 240 253 256 263 270 281
80 83 87 80 73 78 89 103 112 104 92 82 77 87 110 130 138 128 101 70 77 109 128 124 92 68 92 92 86 69 34 48 56 64 72 75 88 106 120 110 97 94 96 95 90 91 104 108 106 103 100 90 80 71 74 91 112 110 105 102 101 100 101 95 90 87 99 96 21 350 37 167 206 294 213 176 191 214 219 216 223 234 247 257 259 260 267 275
91 94 91 84 82 92 100 104 112 107 95 87 81 85 93 110 134 132 105 83 99 123 134 197 300 13 151 107 86 75 54 63 62 72 77 67 83 110 123 116 87 60 65 114 107 106 110 112 110 100 89 90 84 70 79 104 120 118 110 102 101 107 103 91 90 69 87 98 28 349 324 240 187 282 186 168 194 215 192 203 220 237 251 261 261 260 268 275
97 101 93 87 90 94 97 99 103 104 99 93 91 88 83 88 107 117 109 100 105 100 96 112 96 110 133 94 75 70 69 70 66 74 80 71 76 113 124 119 51 86 124 122 113 110 107 109 111 103 102 106 98 82 99 119 125 124 116 107 114 120 97 72 88 45 340 50 15 331 318 240 200 224 168 171 199 201 186 211 225 239 250 258 258 262 274 274
103 103 96 90 95 96 94 92 92 96 99 102 102 91 82 86 98 106 108 105 106 105 102 104 101 119 115 79 63 70 76 75 74 80 85 80 79 94 99 99 105 109 118 118 111 100 99 113 113 109 113 110 101 115 126 132 137 136 127 128 146 132 74 50 80 352 295 29 357 331 25 162 197 178 162 179 199 186 197 220 231 241 244 248 255 260 270 271
108 109 103 96 102 101 91 91 94 96 103 110 106 88 80 94 105 107 104 102 105 106 107 102 114 133 103 81 69 76 79 83 89 91 93 93 93 97 97 96 102 108 111 113 109 101 105 115 111 105 104 105 112 123 124 137 165 146 131 159 168 131 40 67 37 338 307 25 0 4 55 99 162 159 166 187 184 180 206 230 241 243 239 245 260 264 269 277
111 115 113 105 108 105 93 95 98 100 107 110 100 79 81 100 115 116 106 106 103 100 105 100 106 108 96 83 74 80 83 88 92 88 88 95 100 100 96 90 92 96 96 102 105 104 106 104 99 96 99 110 118 124 126 153 191 155 121 309 355 97 145 120 41 14 29 309 315 348 330 14 130 158 177 186 179 186 208 234 253 247 250 255 264 272 274 287
110 114 124 116 111 110 102 97 96 101 108 106 101 91 87 94 103 107 105 108 105 108 110 96 94 99 90 76 80 81 80 82 83 82 84 89 91 92 91 90 93 96 98 99 100 99 96 89 85 87 100 120 121 123 143 113 129 185 111 11 351 92 161 176 75 42 340 293 236 192 301 329 144 165 178 184 180 188 202 227 251 250 256 260 262 275 278 287
113 112 126 127 119 114 110 104 95 100 110 110 105 96 91 92 97 102 103 106 104 104 102 92 88 87 76 75 86 70 68 76 75 80 85 85 84 88 93 95 95 97 100 98 92 83 76 75 79 78 72 57 2 73 134 64 44 26 78 118 324 29 145 165 127 357 311 275 208 185 210 277 255 169 177 190 183 187 200 218 242 247 249 256 260 277 287 295
119 120 121 126 126 119 117 114 105 104 110 112 104 94 94 88 95 111 110 116 109 99 95 76 67 76 64 66 73 57 61 72 70 79 84 81 81 88 94 94 91 91 95 91 73 57 57 64 81 82 44 35 8 19 106 128 328 15 42 114 156 71 82 81 121 10 342 283 250 247 222 268 289 166 178 192 186 188 197 209 232 247 248 261 268 276 296 323
124 135 128 123 124 123 125 122 120 117 109 111 107 96 94 87 92 99 95 108 89 74 73 32 43 91 100 78 70 67 69 66 72 80 79 80 79 79 83 78 69 77 94 86 42 38 53 57 56 57 21 23 12 12 64 104 326 337 353 44 43 100 90 64 104 47 0 321 272 257 265 297 302 240 190 187 187 189 199 210 216 232 236 243 267 291 332 4
127 143 143 131 130 131 132 127 129 127 114 118 112 92 96 90 80 69 69 75 71 70 78 61 68 92 97 84 74 75 72 57 54 68 73 75 74 72 72 67 65 68 70 69 38 41 68 74 44 43 9 350 353 351 351 307 285 292 301 61 43 34 98 95 98 79 354 321 265 230 314 299 286 291 178 169 177 186 204 216 213 222 215 202 211 14 19 16
128 145 149 140 139 134 133 133 131 128 128 130 97 42 107 95 91 92 78 72 68 70 73 70 76 82 75 71 69 75 79 56 37 53 80 72 66 61 46 48 68 66 44 56 74 55 66 79 35 13 349 327 320 313 310 291 272 301 322 86 76 37 62 67 84 137 41 344 286 21 343 298 310 14 118 147 169 191 209 219 221 219 188 167 135 99 64 10
125 143 147 139 138 132 132 136 133 134 141 138 33 55 116 111 111 108 96 81 67 66 69 69 72 72 69 67 64 73 82 57 37 47 70 78 65 57 45 48 66 68 25 44 86 59 53 76 42 1 329 310 290 279 291 304 345 6 340 0 54 4 357 24 73 183 139 312 296 9 347 296 12 50 106 136 169 195 204 208 205 190 155 142 127 120 23 29
124 139 148 143 137 131 135 139 139 143 145 105 81 109 112 107 103 95 92 90 71 60 63 66 64 63 62 59 57 68 70 53 28 33 52 86 79 69 64 58 59 56 19 11 103 97 74 83 21 343 320 309 291 335 339 307 29 31 4 34 26 0 33 36 293 258 190 177 268 334 319 278 102 56 81 138 180 194 214 217 207 193 169 175 196 254 329 81
130 138 151 149 137 131 135 136 144 153 143 115 116 116 109 103 97 90 88 90 82 58 52 55 52 50 52 52 52 60 62 53 32 28 48 77 83 75 70 61 59 55 36 52 84 92 91 67 354 319 286 280 278 36 26 3 71 38 17 46 27 350 11 245 294 311 288 190 242 294 315 278 160 128 180 181 187 205 223 228 232 224 208 213 235 283 302 1
138 137 152 153 141 136 137 132 143 152 141 136 126 114 106 99 88 88 94 90 84 39 32 40 36 35 39 40 43 56 61 51 35 31 46 62 71 87 78 52 49 47 47 69 82 82 71 40 340 312 280 282 283 57 31 6 68 56 11 14 354 339 325 296 310 322 343 289 268 27 41 280 244 127 156 177 187 193 193 202 231 223 213 226 236 230 257 304
143 139 147 153 147 144 143 117 123 138 139 139 128 104 94 89 55 43 97 97 56 350 7 19 11 14 12 11 15 55 65 44 33 35 44 51 57 90 81 38 56 81 76 81 90 85 62 19 280 293 296 325 65 83 24 355 33 34 301 322 331 323 308 305 318 334 58 230 281 44 98 230 291 274 166 178 200 160 171 199 203 182 188 205 198 191 210 284
145 145 145 150 152 154 151 114 138 143 144 143 123 62 37 23 4 3 36 92 37 321 358 3 4 22 16 20 23 68 89 37 31 35 40 51 56 85 94 23 59 82 69 101 92 33 10 12 343 307 286 307 69 67 10 14 54 175 262 295 317 314 311 323 331 317 269 252 313 14 74 144 278 260 205 206 217 137 148 153 116 147 172 171 172 189 200 225
144 151 152 153 157 162 153 140 152 151 150 146 86 15 7 348 329 348 60 109 329 315 20 20 42 43 33 40 43 61 89 85 25 27 35 50 55 76 82 42 80 95 43 116 136 20 11 22 5 333 325 23 50 46 13 11 58 123 258 284 316 327 325 332 324 289 315 66 328 332 16 78 262 261 243 248 189 116 119 119 105 131 159 159 169 195 227 244
143 150 159 162 165 167 153 150 160 157 154 141 35 7 358 347 330 22 73 163 286 39 44 26 43 27 23 44 44 51 62 49 51 39 38 49 56 80 94 87 96 89 47 60 119 130 51 37 17 345 0 33 30 41 33 13 59 203 273 282 303 317 303 296 298 292 9 69 263 317 6 47 273 263 232 265 227 131 116 125 125 136 154 167 178 186 222 252
147 146 156 162 169 175 172 164 167 163 153 119 23 2 352 355 21 54 46 212 158 106 4 4 6 348 340 22 45 40 47 44 36 44 52 57 63 78 98 102 95 84 54 59 74 107 112 70 51 50 36 6 340 359 48 35 36 245 273 266 259 284 260 230 256 293 27 21 244 307 11 78 338 265 219 197 171 146 137 130 139 156 169 179 183 184 196 221
164 152 152 154 158 175 184 178 177 175 163 123 4 356 347 359 66 81 180 198 91 296 339 12 5 355 2 83 62 18 36 43 15 23 52 47 46 57 71 83 68 62 60 59 56 99 155 80 51 52 32 7 326 326 79 63 41 326 281 299 30 326 303 314 321 35 57 279 231 158 26 82 142 266 236 154 142 135 140 133 140 162 173 179 184 196 211 229
181 172 164 162 156 162 182 184 186 187 185 272 345 353 358 22 49 95 212 299 353 329 356 32 351 0 26 70 52 356 17 34 12 25 49 41 45 29 25 36 73 64 49 32 40 352 0 64 126 107 38 22 6 341 357 0 4 315 312 3 31 6 10 19 333 23 86 255 215 137 50 77 217 237 179 149 149 145 147 139 137 164 176 181 190 213 235 256
189 191 188 189 186 174 177 188 195 201 214 277 323 350 32 59 1 122 79 337 327 314 38 84 41 7 5 54 35 346 358 2 356 27 26 60 92 49 29 53 80 172 156 106 102 345 346 56 43 95 46 9 10 38 28 333 327 339 2 30 36 49 32 340 319 347 296 267 232 161 188 292 270 249 166 146 146 149 156 160 171 198 201 198 204 222 243 265
181 195 201 205 207 203 198 197 203 212 230 261 292 25 42 67 224 162 140 298 269 241 0 69 163 53 37 60 92 308 47 18 316 10 7 351 65 50 45 45 34 37 193 100 122 136 115 264 342 37 351 347 15 85 151 260 301 301 176 118 85 80 88 282 319 335 285 297 314 313 282 175 235 271 145 134 140 151 162 169 178 217 224 220 227 236 250 270
159 180 196 205 209 211 213 209 210 217 220 211 139 63 44 152 170 134 151 169 194 196 132 7 223 109 50 43 267 291 85 46 309 12 27 20 44 32 18 10 12 14 41 91 126 119 107 238 281 72 14 11 46 57 168 168 285 286 111 93 74 141 143 171 180 198 241 335 322 282 245 197 177 39 92 119 142 161 166 172 182 217 236 237 246 246 253 262
136 150 169 186 194 200 203 202 204 196 181 158 103 74 219 161 162 96 84 126 156 158 137 91 311 73 89 36 350 353 34 46 314 26 33 46 75 44 67 0 356 12 60 102 74 68 97 280 242 119 58 76 99 50 49 114 262 318 25 45 230 167 133 115 14 318 90 21 286 254 285 293 38 14 41 124 160 171 167 179 193 217 234 245 260 255 251 246
121 132 134 146 164 172 175 177 176 169 160 127 74 136 197 68 305 338 356 355 149 136 134 130 349 69 126 110 36 355 46 8 347 43 48 51 49 30 62 70 3 7 27 83 73 190 154 206 262 126 37 166 148 62 12 262 244 91 77 257 238 96 107 127 27 340 12 311 276 185 273 290 331 309 289 174 184 187 183 189 193 207 223 237 252 250 236 232
97 108 109 114 131 148 156 155 155 157 145 88 78 116 136 50 338 341 352 357 72 84 108 128 82 154 139 129 150 352 24 7 350 53 72 126 35 11 39 70 19 8 351 6 14 228 158 121 308 320 305 251 222 82 12 309 268 194 201 266 126 96 48 268 96 0 358 305 287 295 312 271 206 217 226 206 209 205 196 186 186 206 217 228 245 237 226 234
92 93 89 99 124 134 139 141 147 152 124 86 121 145 101 93 39 27 19 16 40 47 56 124 132 95 64 119 148 83 24 31 21 65 79 111 74 7 18 82 5 353 342 333 350 228 138 104 289 280 287 309 315 122 115 300 275 283 324 338 62 122 158 213 170 180 180 277 295 310 326 298 234 210 181 189 205 197 186 176 187 206 214 224 245 240 236 242
117 86 78 110 132 132 135 138 133 119 82 82 116 123 119 126 96 53 53 55 63 53 41 341 109 117 100 51 136 92 97 59 32 101 85 56 97 28 25 35 0 335 324 313 309 0 55 95 283 289 328 349 306 190 167 152 183 269 42 74 61 87 121 173 197 162 159 197 289 307 303 277 257 208 159 163 176 172 169 176 189 198 205 232 248 249 251 252
122 78 94 132 138 138 140 130 85 68 90 96 85 93 141 133 128 82 59 69 81 71 71 61 78 117 130 130 59 13 105 87 25 76 83 39 69 36 24 22 358 339 329 322 342 30 41 112 160 231 260 280 234 326 15 19 352 265 140 154 157 128 99 69 320 302 92 154 199 255 288 272 269 300 137 149 152 159 168 180 191 198 215 236 249 255 259 262
126 81 125 143 142 146 141 102 45 52 92 92 86 109 130 122 124 112 61 64 72 73 78 69 65 81 80 102 97 25 73 73 23 27 41 41 43 5 358 16 2 349 345 337 43 29 18 56 110 199 212 230 216 60 25 352 348 341 281 180 103 126 133 134 201 243 179 54 142 111 276 268 271 329 45 134 150 164 180 193 203 214 227 239 251 260 261 267
124 103 136 150 147 147 131 84 46 45 61 90 99 100 107 104 114 137 98 60 64 70 77 64 44 59 53 91 97 59 45 52 29 27 59 64 54 285 5 19 15 8 356 300 33 5 354 38 313 280 258 255 243 192 259 328 16 338 275 247 155 149 137 142 164 165 147 201 154 99 267 267 271 316 42 134 157 174 191 204 214 220 232 245 253 259 262 265
117 103 130 160 169 170 124 100 126 99 90 126 98 79 86 76 88 127 119 75 82 87 103 111 78 80 87 93 90 93 230 76 47 11 83 98 122 163 123 51 48 40 38 156 126 357 2 59 0 327 339 331 323 336 341 357 356 266 270 203 178 111 90 77 91 92 0 220 178 152 244 259 273 329 258 232 212 214 217 220 226 230 238 251 257 259 260 259
116 95 105 149 187 213 237 152 149 136 146 144 110 110 109 66 64 108 102 96 96 84 109 127 122 108 108 99 89 87 278 81 106 228 65 79 110 149 92 41 122 97 106 147 146 39 67 75 37 53 7 317 315 289 304 331 291 255 47 116 191 142 134 133 82 104 243 226 176 180 236 264 295 330 292 262 235 240 245 237 238 243 246 253 256 256 258 258
120 99 108 115 167 178 110 144 142 131 147 148 118 154 139 82 78 109 94 100 111 96 95 116 132 115 101 110 96 86 22 24 64 139 134 103 122 176 253 70 88 94 112 127 104 78 107 101 113 130 203 223 197 223 234 246 262 235 174 186 207 195 194 182 82 176 198 174 203 225 238 275 287 279 271 265 235 234 247 243 243 247 247 248 252 255 257 259
142 148 162 127 110 95 86 122 137 132 153 155 133 156 137 109 129 121 57 73 139 125 90 81 133 148 149 147 114 104 129 23 42 87 111 97 93 108 149 95 49 54 122 106 36 42 106 332 104 146 220 214 205 227 214 183 226 217 195 201 192 187 197 186 201 219 162 106 262 251 217 259 276 273 260 260 248 239 246 247 251 253 248 246 251 254 254 254
214 163 163 158 154 116 85 140 148 129 122 125 113 133 135 127 151 163 166 136 150 171 137 66 256 231 200 148 117 129 147 57 63 106 136 121 120 125 122 43 28 92 120 74 30 54 94 264 281 242 265 255 245 240 196 177 221 221 209 214 191 180 189 196 216 232 197 199 246 270 305 273 276 284 280 269 265 262 264 267 266 260 252 248 250 253 252 252
150 140 143 143 130 104 111 148 146 122 101 100 104 147 161 154 158 159 133 112 112 238 187 148 235 213 179 55 74 131 162 162 167 210 175 140 148 163 146 0 205 180 49 66 45 44 90 204 184 171 289 285 287 292 187 189 240 247 233 228 206 194 199 207 224 232 235 254 261 279 296 287 276 274 274 277 277 275 273 270 262 255 254 253 251 251 251 253
169 155 143 123 96 87 108 134 137 117 89 86 108 178 175 159 158 161 140 127 141 206 197 181 170 153 126 77 78 115 183 165 140 195 170 137 154 203 191 178 141 122 29 64 34 11 85 160 166 106 313 297 302 345 276 218 244 259 250 235 215 214 216 220 235 229 231 259 267 273 282 280 274 269 270 278 283 280 266 258 255 256 258 254 250 248 251 255
173 169 154 129 100 82 113 134 133 114 111 136 140 171 182 178 170 149 115 64 146 161 184 166 143 124 84 77 98 109 168 122 102 127 141 127 143 174 175 161 143 138 144 147 110 21 99 110 1 70 344 291 270 274 279 280 273 270 272 248 213 210 217 216 221 204 199 225 250 266 262 257 269 279 276 275 277 270 261 261 263 262 255 249 248 250 254 259
166 165 160 138 109 104 145 147 100 120 150 176 141 154 168 171 163 146 106 335 189 152 157 151 140 127 84 100 128 131 131 117 108 111 111 107 111 111 105 115 129 136 152 153 137 66 98 59 347 45 313 275 275 248 260 320 336 283 267 225 192 198 220 234 240 217 203 195 184 219 236 245 277 307 304 284 276 268 269 274 276 270 260 256 257 259 262 265